Погода в Варде

Дания     55°37′15″N   8°28′58″E
темп.,
°C
ветер,
м/с
пор.,
м/с
влажн.,
%
обл.,
%
осадки,
мм/ч
давл.,
гПа
погр.,
м
10 апреля, сб
сб1023:00+3зсз69615 0.0 1011584
02:00+3зсз711625 0.1 1012659
05:00+3зсз610645 0.0 1012550
08:00+3зсз58645 0.0 1014639
11:00+5зсз56545 0.0 10151468
14:00+6з55535 0.1 10161451
17:00+6з4455100 0.1 10161108
20:00+4сз3464100 0.1 1016225
11 апреля, вс
вс1123:00+3с2371100 0.0 101797
02:00+3св3573100 0.0 1016176
05:00+3св4874100 0.0 1015314
08:00+3всв4880100 0.2 1015571
11:00+3св7980100 0.4 1015904
14:00+4ссв7879100 0.9 1015999
17:00+4с7884100 0.8 1015939
20:00+3с699698 1.3 1016493
12 апреля, пн
пн1223:00+2ссз598814 0.0 1017418
02:00+1ссз48835 0.0 1018288
05:00+2сз59775 0.0 1018410
08:00+3зсз79705 0.0 1019770
11:00+5з88615 0.1 10191321
14:00+6з78595 0.3 10201298
17:00+6зсз68585 0.1 10191067
20:00+4зсз58715 0.1 1021475
13 апреля, вт
вт1323:00+3зсз45794 0.0 1022228
02:00+2зсз47815 0.0 1022257
05:00+3зсз58875 0.0 1023280
08:00+4сз58815 0.1 1023437
11:00+6сз78615 0.1 10251153
14:00+7зсз79595 0.1 10251371
17:00+6зсз8106225 0.1 10251465
20:00+4сз811745 0.1 1025970
14 апреля, ср
ср1423:00+4сз812745 0.0 1026836
02:00+3сз711755 0.0 1027615
05:00+3сз697436 0.0 1027468
08:00+4сз587254 0.1 1027797
11:00+6сз556362 0.2 10281239
14:00+7з235490 0.4 10281282
17:00+7з335844 0.1 1028804
20:00+6сз346916 0.1 1029100